Time,TemperatureF,DewpointF,PressureIn,WindDirection,WindDirectionDegrees,WindSpeedMPH,WindSpeedGustMPH,Humidity,HourlyPrecipIn,Conditions,Clouds,dailyrainin,SolarRadiationWatts/m^2,SoftwareType,DateUTC
2013-02-28 00:21:00,5.0,-4.0,-100.00,ENE,73,5.0,8.0,67,0.00,,,0.00,0.000000,,2013-02-28 07:21:00,
2013-02-28 00:31:00,5.0,-4.0,-100.00,ENE,73,5.0,8.0,67,0.00,,,0.00,0.000000,,2013-02-28 07:31:00,
2013-02-28 00:41:00,5.0,-4.0,-100.00,ENE,73,5.0,8.0,67,0.00,,,0.00,0.000000,,2013-02-28 07:41:00,
2013-02-28 00:51:00,5.0,-4.0,-100.00,ENE,73,5.0,8.0,67,0.00,,,0.00,0.000000,,2013-02-28 07:51:00,
2013-02-28 00:52:00,3.0,-4.0,-100.00,ENE,70,4.0,8.0,71,0.00,,,0.00,0.000000,,2013-02-28 07:52:00,
2013-02-28 01:21:00,3.0,-4.0,-100.00,ENE,70,4.0,8.0,71,0.00,,,0.00,0.000000,,2013-02-28 08:21:00,
2013-02-28 01:32:00,3.0,-4.0,-100.00,ENE,70,4.0,8.0,71,0.00,,,0.00,0.000000,,2013-02-28 08:32:00,
2013-02-28 01:42:00,3.0,-4.0,-100.00,ENE,70,4.0,8.0,71,0.00,,,0.00,0.000000,,2013-02-28 08:42:00,
2013-02-28 01:52:00,2.0,-5.0,-100.00,ENE,70,7.0,11.0,73,0.00,,,0.00,0.000000,,2013-02-28 08:52:00,
2013-02-28 02:11:00,2.0,-5.0,-100.00,ENE,70,7.0,11.0,73,0.00,,,0.00,0.000000,,2013-02-28 09:11:00,
2013-02-28 02:21:00,2.0,-5.0,-100.00,ENE,70,7.0,11.0,73,0.00,,,0.00,0.000000,,2013-02-28 09:21:00,
2013-02-28 02:31:00,2.0,-5.0,-100.00,ENE,70,7.0,11.0,73,0.00,,,0.00,0.000000,,2013-02-28 09:31:00,
2013-02-28 02:41:00,2.0,-5.0,-100.00,ENE,70,7.0,11.0,73,0.00,,,0.00,0.000000,,2013-02-28 09:41:00,
2013-02-28 03:21:00,2.0,-6.0,-100.00,ENE,70,6.0,11.0,70,0.00,,,0.00,0.000000,,2013-02-28 10:21:00,
2013-02-28 03:32:00,2.0,-6.0,-100.00,ENE,70,6.0,11.0,70,0.00,,,0.00,0.000000,,2013-02-28 10:32:00,
2013-02-28 03:42:00,2.0,-6.0,-100.00,ENE,70,6.0,11.0,70,0.00,,,0.00,0.000000,,2013-02-28 10:42:00,
2013-02-28 03:51:00,2.0,-6.0,-100.00,ENE,70,6.0,11.0,70,0.00,,,0.00,0.000000,,2013-02-28 10:51:00,
2013-02-28 03:52:00,4.0,-4.0,-100.00,ENE,70,7.0,11.0,70,0.00,,,0.00,0.000000,,2013-02-28 10:52:00,
2013-02-28 04:11:00,4.0,-4.0,-100.00,ENE,70,7.0,11.0,70,0.00,,,0.00,0.000000,,2013-02-28 11:11:00,
2013-02-28 04:21:00,4.0,-4.0,-100.00,ENE,70,7.0,11.0,70,0.00,,,0.00,0.000000,,2013-02-28 11:21:00,
2013-02-28 04:32:00,4.0,-4.0,-100.00,ENE,70,7.0,11.0,70,0.00,,,0.00,0.000000,,2013-02-28 11:32:00,
2013-02-28 04:41:00,4.0,-4.0,-100.00,ENE,70,7.0,11.0,70,0.00,,,0.00,0.000000,,2013-02-28 11:41:00,
2013-02-28 04:52:00,5.0,-3.0,-100.00,ENE,68,4.0,10.0,68,0.00,,,0.00,0.000000,,2013-02-28 11:52:00,
2013-02-28 05:21:00,5.0,-3.0,-100.00,ENE,68,4.0,10.0,68,0.00,,,0.00,0.000000,,2013-02-28 12:21:00,
2013-02-28 05:32:00,5.0,-3.0,-100.00,ENE,68,4.0,10.0,68,0.00,,,0.00,0.000000,,2013-02-28 12:32:00,
2013-02-28 05:42:00,5.0,-3.0,-100.00,ENE,68,4.0,10.0,68,0.00,,,0.00,0.000000,,2013-02-28 12:42:00,
2013-02-28 05:52:00,5.0,-3.0,-100.00,ENE,68,2.0,9.0,68,0.00,,,0.00,0.000000,,2013-02-28 12:52:00,
2013-02-28 06:21:00,5.0,-3.0,-100.00,ENE,68,2.0,9.0,68,0.00,,,0.00,0.000000,,2013-02-28 13:21:00,
2013-02-28 06:32:00,5.0,-3.0,-100.00,ENE,68,2.0,9.0,68,0.00,,,0.00,0.000000,,2013-02-28 13:32:00,
2013-02-28 06:42:00,5.0,-3.0,-100.00,ENE,68,2.0,9.0,68,0.00,,,0.00,0.000000,,2013-02-28 13:42:00,
2013-02-28 06:52:00,5.0,-3.0,-100.00,NE,55,0.0,7.0,68,0.00,,,-99.99,0.000000,,2013-02-28 13:52:00,
2013-02-28 07:11:00,5.0,-3.0,-100.00,NE,55,0.0,7.0,68,0.00,,,-99.99,0.000000,,2013-02-28 14:11:00,
2013-02-28 07:21:00,5.0,-3.0,-100.00,NE,55,0.0,7.0,68,0.00,,,-99.99,0.000000,,2013-02-28 14:21:00,
2013-02-28 07:32:00,5.0,-3.0,-100.00,NE,55,0.0,7.0,68,0.00,,,-99.99,0.000000,,2013-02-28 14:32:00,
2013-02-28 07:42:00,5.0,-3.0,-100.00,NE,55,0.0,7.0,68,0.00,,,-99.99,0.000000,,2013-02-28 14:42:00,
2013-02-28 07:52:00,8.0,0.0,-100.00,NE,56,0.0,6.0,68,0.00,,,0.00,17.000000,,2013-02-28 14:52:00,
2013-02-28 08:21:00,8.0,0.0,-100.00,NE,56,0.0,6.0,68,0.00,,,0.00,17.000000,,2013-02-28 15:21:00,
2013-02-28 08:32:00,8.0,0.0,-100.00,NE,56,0.0,6.0,68,0.00,,,0.00,17.000000,,2013-02-28 15:32:00,
2013-02-28 08:41:00,8.0,0.0,-100.00,NE,56,0.0,6.0,68,0.00,,,0.00,17.000000,,2013-02-28 15:41:00,
2013-02-28 08:52:00,12.0,1.0,-100.00,ENE,57,0.0,4.0,61,0.00,,,0.00,63.000000,,2013-02-28 15:52:00,
2013-02-28 09:22:00,12.0,1.0,-100.00,ENE,57,0.0,4.0,61,0.00,,,0.00,63.000000,,2013-02-28 16:22:00,
2013-02-28 09:32:00,12.0,1.0,-100.00,ENE,57,0.0,4.0,61,0.00,,,0.00,63.000000,,2013-02-28 16:32:00,
2013-02-28 09:42:00,12.0,1.0,-100.00,ENE,57,0.0,4.0,61,0.00,,,0.00,63.000000,,2013-02-28 16:42:00,
2013-02-28 09:52:00,17.0,3.0,-100.00,WSW,257,0.0,0.0,54,0.00,,,0.00,122.000000,,2013-02-28 16:52:00,
2013-02-28 10:11:00,17.0,3.0,-100.00,WSW,257,0.0,0.0,54,0.00,,,0.00,122.000000,,2013-02-28 17:11:00,
2013-02-28 10:21:00,17.0,3.0,-100.00,WSW,257,0.0,0.0,54,0.00,,,0.00,122.000000,,2013-02-28 17:21:00,
2013-02-28 10:32:00,17.0,3.0,-100.00,WSW,257,0.0,0.0,54,0.00,,,0.00,122.000000,,2013-02-28 17:32:00,
2013-02-28 10:41:00,17.0,3.0,-100.00,WSW,257,0.0,0.0,54,0.00,,,0.00,122.000000,,2013-02-28 17:41:00,
2013-02-28 10:52:00,21.0,7.0,-100.00,NW,316,0.0,4.0,53,0.00,,,0.00,187.000000,,2013-02-28 17:52:00,
2013-02-28 11:11:00,21.0,7.0,-100.00,NW,316,0.0,4.0,53,0.00,,,0.00,187.000000,,2013-02-28 18:11:00,
2013-02-28 11:21:00,21.0,7.0,-100.00,NW,316,0.0,4.0,53,0.00,,,0.00,187.000000,,2013-02-28 18:21:00,
2013-02-28 11:32:00,21.0,7.0,-100.00,NW,316,0.0,4.0,53,0.00,,,0.00,187.000000,,2013-02-28 18:32:00,
2013-02-28 11:42:00,21.0,7.0,-100.00,NW,316,0.0,4.0,53,0.00,,,0.00,187.000000,,2013-02-28 18:42:00,
2013-02-28 12:11:00,24.0,9.0,-100.00,WNW,294,0.0,5.0,52,0.00,,,0.00,220.000000,,2013-02-28 19:11:00,
2013-02-28 12:21:00,24.0,9.0,-100.00,WNW,294,0.0,5.0,52,0.00,,,0.00,220.000000,,2013-02-28 19:21:00,
2013-02-28 12:32:00,24.0,9.0,-100.00,WNW,294,0.0,5.0,52,0.00,,,0.00,220.000000,,2013-02-28 19:32:00,
2013-02-28 12:41:00,24.0,9.0,-100.00,WNW,294,0.0,5.0,52,0.00,,,0.00,220.000000,,2013-02-28 19:41:00,
2013-02-28 12:51:00,24.0,9.0,-100.00,WNW,294,0.0,5.0,52,0.00,,,0.00,220.000000,,2013-02-28 19:51:00,
2013-02-28 12:52:00,23.0,10.0,-100.00,WSW,253,1.0,8.0,58,0.00,,,0.00,227.000000,,2013-02-28 19:52:00,
2013-02-28 13:12:00,23.0,10.0,-100.00,WSW,253,1.0,8.0,58,0.00,,,0.00,227.000000,,2013-02-28 20:12:00,
2013-02-28 13:21:00,23.0,10.0,-100.00,WSW,253,1.0,8.0,58,0.00,,,0.00,227.000000,,2013-02-28 20:21:00,
2013-02-28 13:31:00,23.0,10.0,-100.00,WSW,253,1.0,8.0,58,0.00,,,0.00,227.000000,,2013-02-28 20:31:00,
2013-02-28 13:41:00,23.0,10.0,-100.00,WSW,253,1.0,8.0,58,0.00,,,0.00,227.000000,,2013-02-28 20:41:00,
2013-02-28 14:11:00,28.0,12.0,-100.00,WNW,303,0.0,6.0,51,0.00,,,0.00,280.000000,,2013-02-28 21:11:00,
2013-02-28 14:22:00,28.0,12.0,-100.00,WNW,303,0.0,6.0,51,0.00,,,0.00,280.000000,,2013-02-28 21:22:00,
2013-02-28 14:31:00,28.0,12.0,-100.00,WNW,303,0.0,6.0,51,0.00,,,0.00,280.000000,,2013-02-28 21:31:00,
2013-02-28 14:41:00,28.0,12.0,-100.00,WNW,303,0.0,6.0,51,0.00,,,0.00,280.000000,,2013-02-28 21:41:00,
2013-02-28 14:51:00,28.0,12.0,-100.00,WNW,303,0.0,6.0,51,0.00,,,0.00,280.000000,,2013-02-28 21:51:00,
2013-02-28 14:52:00,25.0,13.0,-100.00,West,275,3.0,7.0,59,0.00,,,0.00,305.000000,,2013-02-28 21:52:00,
2013-02-28 15:11:00,25.0,13.0,-100.00,West,275,3.0,7.0,59,0.00,,,0.00,305.000000,,2013-02-28 22:11:00,
2013-02-28 15:21:00,25.0,13.0,-100.00,West,275,3.0,7.0,59,0.00,,,0.00,305.000000,,2013-02-28 22:21:00,
2013-02-28 15:31:00,25.0,13.0,-100.00,West,275,3.0,7.0,59,0.00,,,0.00,305.000000,,2013-02-28 22:31:00,
2013-02-28 15:41:00,25.0,13.0,-100.00,West,275,3.0,7.0,59,0.00,,,0.00,305.000000,,2013-02-28 22:41:00,
2013-02-28 15:52:00,23.0,15.0,-100.00,West,272,3.0,8.0,70,0.00,,,0.00,208.000000,,2013-02-28 22:52:00,
2013-02-28 16:21:00,23.0,15.0,-100.00,West,272,3.0,8.0,70,0.00,,,0.00,208.000000,,2013-02-28 23:21:00,
2013-02-28 16:31:00,23.0,15.0,-100.00,West,272,3.0,8.0,70,0.00,,,0.00,208.000000,,2013-02-28 23:31:00,
2013-02-28 16:41:00,23.0,15.0,-100.00,West,272,3.0,8.0,70,0.00,,,0.00,208.000000,,2013-02-28 23:41:00,
2013-02-28 17:11:00,24.0,14.0,-100.00,West,269,1.0,7.0,66,0.00,,,0.00,136.000000,,2013-03-01 00:11:00,
2013-02-28 17:22:00,24.0,14.0,-100.00,West,269,1.0,7.0,66,0.00,,,0.00,136.000000,,2013-03-01 00:22:00,
2013-02-28 17:32:00,24.0,14.0,-100.00,West,269,1.0,7.0,66,0.00,,,0.00,136.000000,,2013-03-01 00:32:00,
2013-02-28 17:41:00,24.0,14.0,-100.00,West,269,1.0,7.0,66,0.00,,,0.00,136.000000,,2013-03-01 00:41:00,
2013-02-28 17:51:00,24.0,14.0,-100.00,West,269,1.0,7.0,66,0.00,,,0.00,136.000000,,2013-03-01 00:51:00,
2013-02-28 18:21:00,21.0,14.0,-100.00,WNW,291,0.0,4.0,74,0.00,,,0.00,46.000000,,2013-03-01 01:21:00,
2013-02-28 18:31:00,21.0,14.0,-100.00,WNW,291,0.0,4.0,74,0.00,,,0.00,46.000000,,2013-03-01 01:31:00,
2013-02-28 18:42:00,21.0,14.0,-100.00,WNW,291,0.0,4.0,74,0.00,,,0.00,46.000000,,2013-03-01 01:42:00,
2013-02-28 18:51:00,21.0,14.0,-100.00,WNW,291,0.0,4.0,74,0.00,,,0.00,46.000000,,2013-03-01 01:51:00,
2013-02-28 18:52:00,20.0,15.0,-100.00,SSE,153,0.0,4.0,80,0.00,,,0.00,2.000000,,2013-03-01 01:52:00,
2013-02-28 19:11:00,20.0,15.0,-100.00,SSE,153,0.0,4.0,80,0.00,,,0.00,2.000000,,2013-03-01 02:11:00,
2013-02-28 19:21:00,20.0,15.0,-100.00,SSE,153,0.0,4.0,80,0.00,,,0.00,2.000000,,2013-03-01 02:21:00,
2013-02-28 19:31:00,20.0,15.0,-100.00,SSE,153,0.0,4.0,80,0.00,,,0.00,2.000000,,2013-03-01 02:31:00,
2013-02-28 19:42:00,20.0,15.0,-100.00,SSE,153,0.0,4.0,80,0.00,,,0.00,2.000000,,2013-03-01 02:42:00,
2013-02-28 20:11:00,19.0,15.0,-100.00,NE,44,0.0,3.0,85,0.00,,,0.00,0.000000,,2013-03-01 03:11:00,
2013-02-28 20:21:00,19.0,15.0,-100.00,NE,44,0.0,3.0,85,0.00,,,0.00,0.000000,,2013-03-01 03:21:00,
2013-02-28 20:32:00,19.0,15.0,-100.00,NE,44,0.0,3.0,85,0.00,,,0.00,0.000000,,2013-03-01 03:32:00,
2013-02-28 20:41:00,19.0,15.0,-100.00,NE,44,0.0,3.0,85,0.00,,,0.00,0.000000,,2013-03-01 03:41:00,
2013-02-28 20:51:00,19.0,15.0,-100.00,NE,44,0.0,3.0,85,0.00,,,0.00,0.000000,,2013-03-01 03:51:00,
2013-02-28 21:11:00,18.0,16.0,-100.00,ENE,75,0.0,0.0,90,0.00,,,0.00,0.000000,,2013-03-01 04:11:00,
2013-02-28 21:21:00,18.0,16.0,-100.00,ENE,75,0.0,0.0,90,0.00,,,0.00,0.000000,,2013-03-01 04:21:00,
2013-02-28 21:32:00,18.0,16.0,-100.00,ENE,75,0.0,0.0,90,0.00,,,0.00,0.000000,,2013-03-01 04:32:00,
2013-02-28 21:41:00,18.0,16.0,-100.00,ENE,75,0.0,0.0,90,0.00,,,0.00,0.000000,,2013-03-01 04:41:00,
2013-02-28 21:51:00,18.0,16.0,-100.00,ENE,75,0.0,0.0,90,0.00,,,0.00,0.000000,,2013-03-01 04:51:00,
2013-02-28 21:52:00,18.0,16.0,-100.00,East,80,0.0,2.0,91,0.00,,,0.00,0.000000,,2013-03-01 04:52:00,
2013-02-28 22:22:00,18.0,16.0,-100.00,East,80,0.0,2.0,91,0.00,,,0.00,0.000000,,2013-03-01 05:22:00,
2013-02-28 22:32:00,18.0,16.0,-100.00,East,80,0.0,2.0,91,0.00,,,0.00,0.000000,,2013-03-01 05:32:00,
2013-02-28 22:41:00,18.0,16.0,-100.00,East,80,0.0,2.0,91,0.00,,,0.00,0.000000,,2013-03-01 05:41:00,
2013-02-28 22:52:00,18.0,15.0,-100.00,ENE,77,0.0,4.0,87,0.00,,,0.00,0.000000,,2013-03-01 05:52:00,
2013-02-28 23:21:00,18.0,15.0,-100.00,ENE,77,0.0,4.0,87,0.00,,,0.00,0.000000,,2013-03-01 06:21:00,
2013-02-28 23:32:00,18.0,15.0,-100.00,ENE,77,0.0,4.0,87,0.00,,,0.00,0.000000,,2013-03-01 06:32:00,
2013-02-28 23:42:00,18.0,15.0,-100.00,ENE,77,0.0,4.0,87,0.00,,,0.00,0.000000,,2013-03-01 06:42:00,